Hourly Data Report for August 02, 2005

TORONTO CITY
ONTARIO

43°40'00.000" N
79°24'00.000" W
112.50 m
6158355
71508
XTO

Download Data

Hourly Data (August 2005)
Hourly Data Report for August 2, 2005
TIME
LST
Temp Definition
°C
Dew Point Definition
°C
Rel Hum Definition
%
Precip. Amount Definition
mm

Wind Dir Definition
10's deg

Wind Spd Definition
km/h
Visibility Definition
km
Stn Press Definition
kPa
Hmdx Definition


Wind Chill Definition


Weather Definition


00:00 24.9 20.9 78   LegendMM LegendMM   100.30 33   LegendNANA
01:00 24.4 20.8 80   LegendMM LegendMM   100.30 33   LegendNANA
02:00 24.2 20.5 80   LegendMM LegendMM   100.28 32   LegendNANA
03:00 23.4 20.4 83   LegendMM LegendMM   100.29 31   LegendNANA
04:00 22.4 20.3 88   LegendMM LegendMM   100.32 30   LegendNANA
05:00 22.2 20.3 89   LegendMM LegendMM   100.34 30   LegendNANA
06:00 22.4 20.6 90   LegendMM LegendMM   100.38 30   LegendNANA
07:00 23.8 20.9 84   LegendMM LegendMM   100.42 32   LegendNANA
08:00 25.6 20.6 74   LegendMM LegendMM   100.44 34   LegendNANA
09:00 27.3 19.7 63   LegendMM LegendMM   100.39 35   LegendNANA
10:00 28.6 21.8 67   LegendMM LegendMM   100.38 38   LegendNANA
11:00 28.6 21.7 66   LegendMM LegendMM   100.37 38   LegendNANA
12:00 25.6 22.2 82   LegendMM LegendMM   100.39 35   LegendNANA
13:00 24.3 22.7 91   LegendMM LegendMM   100.30 34   LegendNANA
14:00 24.0 21.5 86   LegendMM LegendMM   100.31 33   LegendNANA
15:00 23.8 22.0 90   LegendMM LegendMM   100.24 33   LegendNANA
16:00 22.9 21.7 93   LegendMM LegendMM   100.31 32   LegendNANA
17:00 22.7 20.9 90   LegendMM LegendMM   100.25 31   LegendNANA
18:00 24.5 21.7 84   LegendMM LegendMM   100.21 34   LegendNANA
19:00 24.4 21.7 85   LegendMM LegendMM   100.21 33   LegendNANA
20:00 23.3 21.5 90   LegendMM LegendMM   100.22 32   LegendNANA
21:00 22.6 21.4 93   LegendMM LegendMM   100.24 31   LegendNANA
22:00 22.5 21.6 95   LegendMM LegendMM   100.22 31   LegendNANA
23:00 22.3 21.7 96   LegendMM LegendMM   100.23 31   LegendNANA

Notes on Data Quality.

Legend

  • E = Estimated
  • M = Missing
  • NA = Not Available*
  • [empty] = Indicates an unobserved value
Date modified: